| time (UTC) | temp F | wind direction | speed MPH | gust MPH | rain 1hr in | rain 24hr in | rain mn in | humidity % | barometer mb |
| 20260507185648 | 56 | 0.0 | 0.0 | 0.09 | 1.19 | 1.19 | 97 | 1014.3 | |
| 20260507184606 | 56 | 0.0 | 0.0 | 0.14 | 1.18 | 1.18 | 97 | 1014.2 | |
| 20260507183603 | 56 | 135 | 0.0 | 2.0 | 0.15 | 1.17 | 1.17 | 97 | 1014.3 |
| 20260507182600 | 56 | 135 | 0.0 | 2.0 | 0.19 | 1.17 | 1.17 | 97 | 1014.2 |
| 20260507181558 | 56 | 138 | 1.0 | 2.0 | 0.20 | 1.16 | 1.16 | 97 | 1014.2 |
| 20260507180615 | 56 | 225 | 0.0 | 2.0 | 0.22 | 1.13 | 1.13 | 97 | 1014.2 |
| 20260507175552 | 56 | 167 | 1.0 | 2.0 | 0.39 | 1.10 | 1.10 | 96 | 1014.0 |
| 20260507174550 | 56 | 168 | 2.0 | 4.0 | 0.70 | 1.04 | 1.04 | 96 | 1014.1 |
| 20260507173547 | 56 | 177 | 2.0 | 4.0 | 0.99 | 1.02 | 1.02 | 96 | 1013.7 |
| 20260507172545 | 56 | 9 | 1.0 | 4.0 | 0.98 | 0.98 | 0.98 | 95 | 1013.3 |
| 20260507171542 | 56 | 16 | 3.0 | 4.0 | 0.96 | 0.96 | 0.96 | 95 | 1013.2 |
| 20260507170539 | 55 | 347 | 4.0 | 8.0 | 0.91 | 0.91 | 0.91 | 95 | 1013.1 |
| 20260507165537 | 55 | 21 | 5.0 | 11.0 | 0.71 | 0.71 | 0.71 | 93 | 1013.2 |
| 20260507164534 | 57 | 67 | 1.0 | 2.0 | 0.34 | 0.34 | 0.34 | 90 | 1013.2 |
| 20260507163612 | 58 | 2 | 4.0 | 8.0 | 0.02 | 0.02 | 0.02 | 84 | 1013.0 |
| 20260507162529 | 59 | 352 | 5.0 | 11.0 | 0.00 | 0.00 | 0.00 | 80 | 1013.0 |
| 20260507161527 | 59 | 332 | 7.0 | 15.0 | 0.00 | 0.00 | 0.00 | 81 | 1013.0 |
| 20260507160523 | 60 | 349 | 3.0 | 6.0 | 0.00 | 0.00 | 0.00 | 78 | 1013.0 |
| 20260507155521 | 60 | 4 | 3.0 | 7.0 | 0.00 | 0.00 | 0.00 | 75 | 1012.9 |
| 20260507154518 | 61 | 354 | 6.0 | 13.0 | 0.00 | 0.00 | 0.00 | 72 | 1012.7 |
| 20260507153556 | 64 | 359 | 4.0 | 11.0 | 0.00 | 0.00 | 0.00 | 72 | 1012.7 |
| 20260507152633 | 66 | 326 | 2.0 | 4.0 | 0.00 | 0.00 | 0.00 | 75 | 1012.2 |
| 20260507151611 | 65 | 350 | 2.0 | 6.0 | 0.00 | 0.00 | 0.00 | 76 | 1012.3 |
| 20260507150608 | 65 | 245 | 3.0 | 7.0 | 0.00 | 0.00 | 0.00 | 78 | 1012.2 |
| 20260507145606 | 65 | 304 | 2.0 | 7.0 | 0.00 | 0.00 | 0.00 | 78 | 1012.2 |
| 20260507144603 | 64 | 289 | 2.0 | 8.0 | 0.00 | 0.00 | 0.00 | 78 | 1012.2 |
| 20260507143600 | 65 | 347 | 3.0 | 6.0 | 0.00 | 0.00 | 0.00 | 76 | 1012.2 |
| 20260507142618 | 65 | 296 | 2.0 | 4.0 | 0.00 | 0.00 | 0.00 | 76 | 1012.2 |
| 20260507141555 | 66 | 335 | 3.0 | 7.0 | 0.00 | 0.00 | 0.00 | 75 | 1012.1 |
| 20260507140553 | 66 | 319 | 4.0 | 8.0 | 0.00 | 0.00 | 0.00 | 74 | 1012.1 |
| 20260507135550 | 66 | 330 | 3.0 | 7.0 | 0.00 | 0.00 | 0.00 | 73 | 1012.2 |
| 20260507134547 | 67 | 264 | 3.0 | 7.0 | 0.00 | 0.00 | 0.00 | 70 | 1012.3 |
| 20260507133545 | 68 | 335 | 3.0 | 11.0 | 0.00 | 0.00 | 0.00 | 68 | 1012.3 |
| 20260507132542 | 70 | 32 | 4.0 | 11.0 | 0.00 | 0.00 | 0.00 | 66 | 1012.5 |
| 20260507131559 | 71 | 28 | 5.0 | 9.0 | 0.00 | 0.00 | 0.00 | 62 | 1012.4 |
| 20260507130537 | 71 | 25 | 5.0 | 13.0 | 0.00 | 0.00 | 0.00 | 61 | 1012.6 |
| 20260507125534 | 71 | 333 | 5.0 | 14.0 | 0.00 | 0.00 | 0.00 | 60 | 1012.7 |
| 20260507124532 | 71 | 334 | 4.0 | 11.0 | 0.00 | 0.00 | 0.00 | 62 | 1012.8 |
| 20260507123529 | 69 | 325 | 4.0 | 11.0 | 0.00 | 0.00 | 0.00 | 66 | 1013.0 |
| 20260507122526 | 69 | 250 | 4.0 | 9.0 | 0.00 | 0.00 | 0.00 | 66 | 1013.1 |
| 20260507121524 | 70 | 295 | 3.0 | 11.0 | 0.00 | 0.00 | 0.00 | 64 | 1012.9 |
| 20260507120521 | 70 | 288 | 3.0 | 8.0 | 0.00 | 0.00 | 0.00 | 64 | 1013.1 |
| 20260507115518 | 70 | 293 | 3.0 | 8.0 | 0.00 | 0.00 | 0.00 | 65 | 1013.2 |
| 20260507113613 | 69 | 333 | 3.0 | 7.0 | 0.00 | 0.00 | 0.00 | 64 | 1013.5 |
| 20260507112631 | 70 | 332 | 3.0 | 6.0 | 0.00 | 0.00 | 0.00 | 63 | 1013.6 |
| 20260507111608 | 70 | 320 | 2.0 | 7.0 | 0.00 | 0.00 | 0.00 | 64 | 1013.8 |
| 20260507110626 | 69 | 0 | 4.0 | 11.0 | 0.00 | 0.00 | 0.00 | 62 | 1013.8 |
| 20260507105623 | 68 | 300 | 3.0 | 8.0 | 0.00 | 0.00 | 0.00 | 63 | 1013.9 |
| 20260507104601 | 69 | 15 | 2.0 | 7.0 | 0.00 | 0.00 | 0.00 | 59 | 1014.0 |
| 20260507103558 | 68 | 348 | 3.0 | 7.0 | 0.00 | 0.00 | 0.00 | 59 | 1014.0 |
| 20260507102555 | 68 | 2 | 3.0 | 9.0 | 0.00 | 0.00 | 0.00 | 58 | 1014.0 |
| 20260507101553 | 69 | 341 | 2.0 | 7.0 | 0.00 | 0.00 | 0.00 | 58 | 1014.0 |
| 20260507100550 | 68 | 26 | 2.0 | 8.0 | 0.00 | 0.00 | 0.00 | 62 | 1014.1 |
| 20260507095548 | 67 | 10 | 3.0 | 11.0 | 0.00 | 0.00 | 0.00 | 64 | 1014.1 |
| 20260507094545 | 67 | 21 | 2.0 | 4.0 | 0.00 | 0.00 | 0.00 | 64 | 1014.2 |
| 20260507093542 | 67 | 318 | 3.0 | 6.0 | 0.00 | 0.00 | 0.00 | 64 | 1014.3 |
| 20260507092540 | 67 | 349 | 2.0 | 13.0 | 0.00 | 0.00 | 0.00 | 65 | 1014.3 |
| 20260507091537 | 67 | 4 | 2.0 | 6.0 | 0.00 | 0.00 | 0.00 | 63 | 1014.3 |
| 20260507090614 | 67 | 339 | 2.0 | 7.0 | 0.00 | 0.00 | 0.00 | 62 | 1014.3 |
| 20260507085532 | 66 | 347 | 3.0 | 8.0 | 0.00 | 0.00 | 0.00 | 65 | 1014.2 |
| 20260507084529 | 66 | 317 | 2.0 | 4.0 | 0.00 | 0.00 | 0.00 | 64 | 1014.3 |
| 20260507083526 | 66 | 345 | 3.0 | 7.0 | 0.00 | 0.00 | 0.00 | 62 | 1014.2 |
| 20260507082524 | 67 | 354 | 2.0 | 6.0 | 0.00 | 0.00 | 0.00 | 61 | 1014.2 |
| 20260507081521 | 68 | 19 | 2.0 | 4.0 | 0.00 | 0.00 | 0.00 | 59 | 1014.2 |
| 20260507080519 | 69 | 185 | 1.0 | 4.0 | 0.00 | 0.00 | 0.00 | 59 | 1014.0 |
| 20260507075656 | 68 | 81 | 2.0 | 4.0 | 0.00 | 0.00 | 0.00 | 60 | 1013.8 |
| 20260507074614 | 67 | 26 | 1.0 | 6.0 | 0.00 | 0.00 | 0.00 | 63 | 1013.8 |
| 20260507073611 | 66 | 8 | 2.0 | 4.0 | 0.00 | 0.00 | 0.00 | 64 | 1014.1 |
| 20260507072608 | 66 | 21 | 2.0 | 4.0 | 0.00 | 0.00 | 0.00 | 64 | 1013.9 |
| 20260507071606 | 66 | 309 | 1.0 | 4.0 | 0.00 | 0.00 | 0.00 | 65 | 1013.7 |
| 20260507070603 | 64 | 299 | 2.0 | 4.0 | 0.00 | 0.00 | 0.00 | 67 | 1013.9 |
| 20260507065601 | 62 | 73 | 1.0 | 4.0 | 0.00 | 0.00 | 0.00 | 69 | 1013.8 |
| 20260507064558 | 61 | 18 | 1.0 | 4.0 | 0.00 | 0.00 | 0.00 | 70 | 1013.9 |
| 20260507063555 | 60 | 45 | 0.0 | 4.0 | 0.00 | 0.00 | 0.00 | 71 | 1013.8 |
| 20260507062553 | 60 | 0.0 | 0.0 | 0.00 | 0.00 | 0.00 | 71 | 1014.1 | |
| 20260507061610 | 59 | 0.0 | 0.0 | 0.00 | 0.00 | 0.00 | 74 | 1013.9 | |
| 20260507060548 | 58 | 0.0 | 0.0 | 0.00 | 0.00 | 0.00 | 76 | 1013.9 | |
| 20260507055625 | 58 | 0.0 | 0.0 | 0.00 | 0.00 | 0.00 | 76 | 1013.9 | |
| 20260507054542 | 57 | 0.0 | 0.0 | 0.00 | 0.00 | 0.00 | 77 | 1013.8 | |
| 20260507053540 | 56 | 0.0 | 0.0 | 0.00 | 0.00 | 0.00 | 78 | 1013.7 | |
| 20260507052557 | 56 | 0.0 | 0.0 | 0.00 | 0.00 | 0.00 | 79 | 1013.5 | |
| 20260507051534 | 56 | 0.0 | 0.0 | 0.00 | 0.00 | 0.00 | 79 | 1013.4 | |
| 20260507050532 | 55 | 0.0 | 0.0 | 0.00 | 0.00 | 0.00 | 79 | 1013.5 | |
| 20260507045529 | 56 | 0.0 | 0.0 | 0.00 | 0.00 | 0.00 | 79 | 1013.3 | |
| 20260507044526 | 56 | 0.0 | 0.0 | 0.00 | 0.00 | 0.00 | 78 | 1013.3 | |
| 20260507043524 | 56 | 0.0 | 0.0 | 0.00 | 0.00 | 0.00 | 78 | 1013.2 | |
| 20260507042522 | 56 | 0.0 | 0.0 | 0.00 | 0.00 | 0.00 | 76 | 1013.3 | |
| 20260507041519 | 56 | 0.0 | 2.0 | 0.00 | 0.00 | 0.00 | 77 | 1013.2 | |
| 20260507040516 | 56 | 0.0 | 0.0 | 0.00 | 0.00 | 0.00 | 77 | 1013.0 | |
| 20260507035614 | 56 | 0.0 | 0.0 | 0.00 | 0.00 | 0.00 | 77 | 1013.0 | |
| 20260507034611 | 56 | 0.0 | 0.0 | 0.00 | 0.00 | 0.00 | 78 | 1013.1 | |
| 20260507033608 | 56 | 23 | 0.0 | 2.0 | 0.00 | 0.00 | 0.00 | 78 | 1013.3 |
| 20260507032606 | 57 | 0.0 | 2.0 | 0.00 | 0.00 | 0.00 | 76 | 1013.4 | |
| 20260507031604 | 57 | 0.0 | 2.0 | 0.00 | 0.00 | 0.00 | 76 | 1013.4 | |
| 20260507030701 | 57 | 0.0 | 0.0 | 0.00 | 0.00 | 0.00 | 78 | 1013.5 | |
| 20260507025618 | 57 | 0.0 | 0.0 | 0.00 | 0.00 | 0.00 | 78 | 1013.5 | |
| 20260507024556 | 58 | 0.0 | 0.0 | 0.00 | 0.00 | 0.00 | 78 | 1013.4 | |
| 20260507023633 | 58 | 68 | 0.0 | 2.0 | 0.00 | 0.00 | 0.00 | 77 | 1013.8 |
| 20260507022611 | 58 | 68 | 0.0 | 2.0 | 0.00 | 0.00 | 0.00 | 77 | 1013.8 |
| 20260507021548 | 58 | 0.0 | 0.0 | 0.00 | 0.00 | 0.00 | 77 | 1013.7 | |
| 20260507020605 | 57 | 0.0 | 0.0 | 0.00 | 0.00 | 0.00 | 78 | 1013.7 | |
| 20260507015542 | 58 | 0.0 | 0.0 | 0.00 | 0.00 | 0.00 | 78 | 1013.7 | |
| 20260507014600 | 57 | 45 | 0.0 | 2.0 | 0.00 | 0.00 | 0.00 | 81 | 1013.7 |
| 20260507013537 | 57 | 0.0 | 0.0 | 0.00 | 0.00 | 0.00 | 81 | 1013.7 | |
| 20260507012535 | 57 | 0.0 | 0.0 | 0.00 | 0.00 | 0.00 | 81 | 1013.7 | |
| 20260507011532 | 57 | 0.0 | 0.0 | 0.00 | 0.00 | 0.00 | 81 | 1013.8 | |
| 20260507010530 | 57 | 0.0 | 0.0 | 0.00 | 0.00 | 0.00 | 80 | 1013.8 | |
| 20260507005527 | 58 | 0.0 | 0.0 | 0.00 | 0.00 | 0.00 | 80 | 1013.9 | |
| 20260507004524 | 58 | 0 | 0.0 | 4.0 | 0.00 | 0.00 | 0.00 | 81 | 1013.9 |
| 20260507003522 | 57 | 0.0 | 0.0 | 0.00 | 0.00 | 0.00 | 83 | 1014.0 | |
| 20260507002519 | 57 | 19 | 1.0 | 2.0 | 0.00 | 0.00 | 0.00 | 85 | 1014.2 |
| 20260507001516 | 57 | 19 | 1.0 | 2.0 | 0.00 | 0.00 | 0.00 | 84 | 1014.1 |
| 20260507000614 | 57 | 0.0 | 0.0 | 0.00 | 0.00 | 0.00 | 83 | 1014.1 | |
| 20260506235611 | 58 | 0.0 | 0.0 | 0.00 | 0.00 | 0.00 | 83 | 1014.4 | |
| 20260506234609 | 58 | 0 | 0.0 | 2.0 | 0.00 | 0.00 | 0.00 | 82 | 1014.4 |
| 20260506233626 | 58 | 0 | 0.0 | 2.0 | 0.00 | 0.00 | 0.00 | 81 | 1014.4 |
| 20260506232604 | 58 | 0.0 | 0.0 | 0.00 | 0.00 | 0.00 | 82 | 1014.3 | |
| 20260506231601 | 58 | 0 | 0.0 | 2.0 | 0.00 | 0.00 | 0.00 | 82 | 1014.7 |
| 20260506230558 | 58 | 0.0 | 0.0 | 0.00 | 0.00 | 0.00 | 83 | 1014.7 | |
| 20260506225555 | 58 | 0 | 0.0 | 2.0 | 0.00 | 0.00 | 0.00 | 83 | 1014.6 |
| 20260506224553 | 59 | 0 | 0.0 | 2.0 | 0.00 | 0.00 | 0.00 | 82 | 1014.6 |
| 20260506223550 | 59 | 0 | 1.0 | 2.0 | 0.00 | 0.00 | 0.00 | 82 | 1014.7 |
| 20260506222548 | 59 | 0 | 0.0 | 2.0 | 0.00 | 0.00 | 0.00 | 81 | 1014.8 |
| 20260506221545 | 58 | 0 | 1.0 | 2.0 | 0.00 | 0.00 | 0.00 | 83 | 1014.7 |
| 20260506220543 | 59 | 6 | 1.0 | 4.0 | 0.00 | 0.00 | 0.00 | 82 | 1014.9 |
| 20260506215540 | 59 | 0 | 0.0 | 2.0 | 0.00 | 0.00 | 0.00 | 81 | 1015.0 |
| 20260506214558 | 59 | 16 | 1.0 | 4.0 | 0.00 | 0.00 | 0.00 | 82 | 1015.0 |
| 20260506213535 | 59 | 20 | 1.0 | 4.0 | 0.00 | 0.00 | 0.00 | 82 | 1015.2 |
| 20260506212532 | 59 | 7 | 0.0 | 2.0 | 0.00 | 0.00 | 0.00 | 82 | 1015.0 |
| 20260506211529 | 59 | 357 | 1.0 | 2.0 | 0.00 | 0.00 | 0.00 | 82 | 1014.9 |
| 20260506210527 | 59 | 4 | 1.0 | 4.0 | 0.00 | 0.00 | 0.00 | 82 | 1014.8 |
| 20260506205524 | 59 | 10 | 1.0 | 4.0 | 0.00 | 0.00 | 0.00 | 82 | 1014.9 |
| 20260506204522 | 59 | 15 | 0.0 | 2.0 | 0.00 | 0.00 | 0.00 | 81 | 1014.7 |
| 20260506203519 | 59 | 311 | 1.0 | 4.0 | 0.00 | 0.00 | 0.00 | 81 | 1014.6 |
| 20260506202516 | 59 | 83 | 1.0 | 4.0 | 0.00 | 0.00 | 0.00 | 81 | 1014.3 |
| 20260506201634 | 59 | 349 | 1.0 | 4.0 | 0.00 | 0.00 | 0.00 | 81 | 1014.3 |
| 20260506200612 | 59 | 139 | 1.0 | 2.0 | 0.00 | 0.00 | 0.00 | 81 | 1014.2 |
| 20260506195609 | 60 | 158 | 1.0 | 4.0 | 0.00 | 0.00 | 0.00 | 81 | 1014.0 |
| 20260506194606 | 60 | 63 | 1.0 | 2.0 | 0.00 | 0.00 | 0.00 | 81 | 1013.9 |
| 20260506193604 | 60 | 187 | 0.0 | 2.0 | 0.00 | 0.00 | 0.00 | 80 | 1013.8 |
| 20260506192601 | 60 | 208 | 2.0 | 4.0 | 0.00 | 0.00 | 0.00 | 80 | 1013.6 |
| 20260506191618 | 61 | 137 | 2.0 | 4.0 | 0.00 | 0.00 | 0.00 | 81 | 1013.6 |
| 20260506190616 | 61 | 312 | 1.0 | 4.0 | 0.00 | 0.00 | 0.00 | 80 | 1013.5 |